MUOS-3

Last updated on Sun Jun 21 2026 00:03:06 GMT+0000 (Coordinated Universal Time)

1 40374U 15002A 26171.38895046 -.00000134 00000+0 00000+0 0 9993 2 40374 4.5265 43.5344 0052168 177.9342 171.7187 1.00271307 41615
UTC large
Height (km)
Speed (km/s)
/
Latitude / Longitude
Inclination (degrees)
Orbital Period (minutes)
Azimuth
Elevation
Range (km)
Doppler Factor

Next 0 passes for location: London (51.5072 / 0.1276)

No passes found over London.
MUOS-3